Flag for Switzerland Weather past 2 weeks in Küssnacht, Schwyz, Switzerland

Now
71 °F

Passing clouds.


Feels Like: 75 °F
Forecast: 60 / 81 °F
Wind: 3 mph from Southeast

Location: Altdorf

Current Time: Jul 6, 2015 at 3:10:47 AM

Latest Report: Jul 6, 2015 at 2:00 AM


Visibility: 16 mi

Pressure: 30.07 "Hg

Humidity: 66%

Dew point: 59 °F

Location of KüssnachtLocation

Historic Weather in Küssnacht — Graph

°F

Küssnacht temperature yesterday

Maximum temperature yesterday: 91 °F (at 5:00 PM)
Minimum temperature yesterday: 68 °F (at 6:00 AM)
Average temperature yesterday: 78 °F

Past Weeks' High & Low Weather Summary

 TemperatureHumidityPressure
High91 °F (Jul 5, 5:00 PM)95% (Jun 22, 6:00 AM)30.24 "Hg (Jun 22, 6:00 AM)
Low50 °F (Jun 24, 8:00 AM)38% (Jul 3, 8:00 PM)29.73 "Hg (Jun 22, 11:00 PM)
Average69 °F68%30.09 "Hg
* Reported Jun 21 1:00 AM — Jul 6 1:00 AM, Küssnacht, Weather by CustomWeather, © 2015

Note: Actual official high and low records may vary slightly from our data, if they occured in-between our weather recording intervals... More about our weather records

Advertising

Küssnacht weather history for previous 24 hours

 ConditionsComfort  
Time TempWeatherWind HumidityBarometerVisibility
1:00 AM
Mon, Jul 6
69 °FMild.3 mph74%30.06 "HgN/A
12:00 AM68 °FMild.2 mph79%30.06 "HgN/A
11:00 PM
Sun, Jul 5
74 °FPassing clouds.8 mph62%30.05 "Hg12 mi
10:00 PM73 °FMild.3 mph66%30.03 "HgN/A
9:00 PM75 °FMild.16 mph62%30.01 "HgN/A
8:00 PM77 °FHeavy rain. Overcast.16 mph67%29.99 "Hg5 mi
7:00 PM88 °FHot.5 mph44%29.87 "HgN/A
6:00 PM91 °FHot.7 mph39%29.88 "HgN/A
5:00 PM91 °FPartly sunny.5 mph49%29.90 "Hg16 mi
4:00 PM89 °FHot.3 mph52%29.91 "HgN/A
3:00 PM89 °FHot.3 mph44%29.94 "HgN/A
2:00 PM86 °FPassing clouds.3 mph53%29.97 "Hg19 mi
1:00 PM83 °FWarm.5 mph53%29.98 "HgN/A
12:00 PM81 °FWarm.3 mph54%30.00 "HgN/A
11:00 AMN/ASunny.N/AN/AN/A19 mi
10:00 AM78 °FWarm.3 mph63%30.04 "HgN/A
9:00 AM75 °FMild.1 mph61%30.06 "HgN/A
8:00 AM71 °FScattered clouds.No wind69%30.08 "Hg19 mi
7:00 AM69 °FMild.No wind70%30.08 "HgN/A
6:00 AM68 °FMild.No wind74%30.08 "HgN/A
4:00 AM72 °FMild.2 mph65%30.07 "HgN/A
3:00 AM71 °FMild.2 mph69%30.08 "HgN/A
Weather by CustomWeather, © 2015

See weather overviewHow to use our weather pages